Regional Weather Roundup
Issued by NWS

Home | Current Version | Previous Version | Graphics & Text | Print | Product List | Glossary On
Versions: 1 2 3 4 5 6 7 8 9 10 11 12 13 14 15 16 17 18 19 20 21 22 23 24 25 26 27 28 29 30 31 32 33 34 35 36 37 38 39 40 41 42 43 44 45 46 47 48 49 50
112
ASUS43 KOAX 240902
RWRNE

WEATHER ROUNDUP FOR NEBRASKA
NATIONAL WEATHER SERVICE OMAHA NE
400 AM CDT MON APR 24 2017

NOTES: SATELLITE DATA IS BEING USED TO AUGMENT CLOUD COVER ABOVE
       12000 FEET.
       "FAIR" INDICATES FEW OR NO CLOUDS BELOW 12,000 FEET WITH NO
       SIGNIFICANT WEATHER AND/OR OBSTRUCTIONS TO VISIBILITY.

  * THESE STATIONS DO NOT REPORT WEATHER SUCH AS RAIN...SNOW OR FOG.

NEZ001>004-019>022-054>056-241000-
NEBRASKA PANHANDLE

CITY           SKY/WX    TMP DP  RH WIND       PRES   REMARKS
SCOTTSBLUFF    CLOUDY    46  37  71 NW7       29.62R
ALLIANCE       CLOUDY    44  37  76 CALM      29.56F
CHADRON        PTCLDY    43  40  89 W5        29.58F
KIMBALL        CLOUDY    51  41  69 NW13      29.63R
SIDNEY         CLEAR     42  38  85 NW7       29.56R
$$

NEZ057>060-069>072-079>082-241000-
SOUTHWEST NEBRASKA

CITY           SKY/WX    TMP DP  RH WIND       PRES   REMARKS
NORTH PLATTE   CLOUDY    52  35  52 SE8       29.59F
IMPERIAL       CLOUDY    47  36  65 SE8       29.54F
LEXINGTON      CLOUDY    53  34  49 S18G26    29.62F
MCCOOK         CLOUDY    53  35  50 SE8       29.59F
OGALLALA       CLOUDY    49  35  56 E9        29.54F
$$

NEZ005>010-023>029-035>040-094-241000-
NORTH CENTRAL NEBRASKA

CITY           SKY/WX    TMP DP  RH WIND       PRES   REMARKS
VALENTINE      CLOUDY    57  30  35 SW12      29.57R
AINSWORTH      CLOUDY    52  37  56 S22G28    29.55F
BROKEN BOW     CLOUDY    52  34  50 S20G26    29.62F
O`NEILL        CLOUDY    54  33  46 SE15      29.64F
ORD            MOCLDY    52  33  48 SE12G21   29.64F
THEDFORD       CLOUDY    53  35  50 S15       29.57F
$$

NEZ041-046>049-061>064-073>077-083>087-241000-
SOUTH CENTRAL NEBRASKA

CITY           SKY/WX    TMP DP  RH WIND       PRES   REMARKS
GRAND ISLAND   CLOUDY    52  35  52 S20G29    29.70F
AURORA         CLOUDY    52  34  49 S20G25    29.72F
HASTINGS       MOCLDY    53  34  48 S18G28    29.72F
HEBRON         CLOUDY    52  36  54 S16       29.78F
HOLDREGE       CLOUDY    52  33  48 S26G35    29.64F
KEARNEY *      PTCLDY    52  32  46 S20G26    29.67F
YORK           MOCLDY    52  36  54 S14       29.75F
$$

NEZ011>018-030>034-042>045-241000-
NORTHEAST NEBRASKA

CITY           SKY/WX    TMP DP  RH WIND       PRES   REMARKS
NORFOLK        MOCLDY    53  33  46 S18G29    29.70F
ALBION         CLOUDY    52  34  50 SE12      29.71F
BLAIR          PTCLDY    53  37  53 S14       29.81F
FREMONT        CLOUDY    52  36  55 S16G23    29.79F
TEKAMAH        CLOUDY    46  38  73 S9        29.81F
WAYNE          CLOUDY    50  37  59 S13       29.73F
$$

NEZ050>053-065>068-078-088>093-241000-
SOUTHEAST NEBRASKA

CITY           SKY/WX    TMP DP  RH WIND       PRES   REMARKS
LINCOLN        MOCLDY    51  38  60 S13       29.81F
OMAHA EPPLEY   MOCLDY    54  36  50 S17       29.83F
BEATRICE       CLOUDY    52  39  61 S13       29.83F
FALLS CITY     PTCLDY    46  38  73 SE9       29.87F
NEBRASKA CITY  CLOUDY    52  31  44 S14       29.85F
PLATTSMOUTH    CLOUDY    52  32  47 S12       29.84F
$$

NEZ044-045-051>053-067-241000-
OMAHA AREA

CITY           SKY/WX    TMP DP  RH WIND       PRES   REMARKS
OMAHA EPPLEY   MOCLDY    54  36  50 S17       29.83F
BLAIR          PTCLDY    53  37  53 S14       29.81F
FREMONT        CLOUDY    52  36  55 S16G23    29.79F
MILLARD        CLOUDY    55  38  53 S9        29.83F
OFFUTT AFB     CLOUDY    53  36  51 S12       29.83F
PLATTSMOUTH    CLOUDY    52  32  47 S12       29.84F
WAHOO          FAIR      48  37  64 S10       29.80F
$$




USA.gov is the U.S. government's official web portal to all federal, state and local government web resources and services.